Aurora, CO

1:57 PM MST on January 21, 2018 (GMT -0700)
Buckley Air Force Base

Weather History for KBKF - December, 2013

Change the Weather History Date:

Wednesday, December 11, 2013

  Actual Average Record
Temperature  
Mean Temperature 22 °F -  
Max Temperature 35 °F 43 °F 68 °F (2004)
Min Temperature 10 °F 20 °F 0 °F (2000)
Degree Days  
Heating Degree Days 42    
Moisture  
Dew Point 12 °F    
Average Humidity 65    
Maximum Humidity 86    
Minimum Humidity 37    
Precipitation  
Precipitation 0.00 in - - ()
Sea Level Pressure  
Sea Level Pressure 30.36 in    
Wind  
Wind Speed 8 mph (SSE)    
Max Wind Speed 13 mph    
Max Gust Speed -    
Visibility 10 miles    
Events      
Averages and records for this station are not official NWS values.
T = Trace of Precipitation, MM = Missing Value Source: NWS Daily Summary

Daily Weather History Graph

Daily Weather History Graph

Search for Another Location

Airport or City:

Trip Planner

Search our weather history database for the weather conditions in past years. The results will help you decide how hot, cold, wet, or windy it might be!

Date:

Astronomy

Dec. 11, 2013 Rise Set
Actual Time 7:10 AM MST 4:34 PM MST
Civil Twilight 6:39 AM MST 5:05 PM MST
Nautical Twilight 6:05 AM MST 5:38 PM MST
Astronomical Twilight 5:33 AM MST 6:11 PM MST
Moon 1:09 PM MST (12/11) 1:34 AM MST (12/11)
Length of Visible Light 10h 25m
Length of Day
9h 24m
Waxing Gibbous, 72% of the Moon is Illuminated
Dec 11
Waxing Gibbous
Dec 17
Full
Dec 25
Last Quarter
Jan 1
New
Jan 7
First Quarter

Hourly Weather History & Observations

Time (MST) Temp. Windchill Dew Point Humidity Pressure Visibility Wind Dir Wind Speed Gust Speed Precip Events Conditions
12:55 AM 14.0 °F 2.0 °F 8.6 °F 79% 30.30 in 10.0 mi SE 9.2 mph - N/A   Scattered Clouds
1:55 AM 14.0 °F 3.9 °F 10.4 °F 86% 30.32 in 10.0 mi SSE 6.9 mph - N/A   Scattered Clouds
2:55 AM 15.8 °F 2.7 °F 10.4 °F 79% 30.33 in 10.0 mi SSE 11.5 mph - N/A   Partly Cloudy
3:55 AM 14.0 °F -0.2 °F 8.6 °F 79% 30.34 in 10.0 mi SE 12.7 mph - N/A   Partly Cloudy
4:55 AM 14.0 °F 2.9 °F 8.6 °F 79% 30.37 in 10.0 mi East 8.1 mph - N/A   Partly Cloudy
5:55 AM 12.2 °F -1.8 °F 6.8 °F 79% 30.39 in 10.0 mi SE 11.5 mph - N/A   Partly Cloudy
6:55 AM 10.4 °F -0.4 °F 6.8 °F 85% 30.40 in 70.0 mi SW 6.9 mph - N/A   Partly Cloudy
7:55 AM 17.6 °F 8.2 °F 10.4 °F 73% 30.40 in 70.0 mi South 6.9 mph - N/A   Partly Cloudy
8:55 AM 17.6 °F 6.4 °F 10.4 °F 73% 30.42 in 70.0 mi SW 9.2 mph - N/A   Partly Cloudy
9:55 AM 26.6 °F 20.0 °F 12.2 °F 55% 30.38 in 70.0 mi East 5.8 mph - N/A   Scattered Clouds
10:55 AM 32.0 °F 26.4 °F 15.8 °F 51% 30.36 in 70.0 mi SW 5.8 mph - N/A   Scattered Clouds
11:55 AM 35.6 °F 30.7 °F 14.0 °F 41% 30.32 in 70.0 mi West 5.8 mph - N/A   Scattered Clouds
12:55 PM 32.0 °F 24.2 °F 17.6 °F 55% 30.35 in 70.0 mi NNE 9.2 mph - N/A   Partly Cloudy
1:55 PM 33.8 °F 27.0 °F 17.6 °F 52% 30.32 in 70.0 mi NNE 8.1 mph - N/A   Partly Cloudy
2:55 PM 32.0 °F 27.5 °F 17.6 °F 55% 30.32 in 70.0 mi NNE 4.6 mph - N/A   Partly Cloudy
3:55 PM 32.0 °F 28.7 °F 17.6 °F 55% 30.35 in 70.0 mi NNE 3.5 mph - N/A   Partly Cloudy
4:55 PM 28.4 °F 24.6 °F 17.6 °F 64% 30.37 in 25.0 mi North 3.5 mph - N/A   Partly Cloudy
5:55 PM 23.0 °F 18.4 °F 15.8 °F 74% 30.42 in 25.0 mi South 3.5 mph - N/A   Partly Cloudy
6:55 PM 21.2 °F 14.9 °F 15.8 °F 80% 30.43 in 25.0 mi South 4.6 mph - N/A   Partly Cloudy
7:55 PM 17.6 °F 6.4 °F 14.0 °F 86% 30.43 in 25.0 mi South 9.2 mph - N/A   Partly Cloudy
8:55 PM 26.6 °F 16.8 °F 10.4 °F 51% 30.38 in 25.0 mi South 10.4 mph - N/A   Partly Cloudy
9:55 PM 26.6 °F 16.8 °F 8.6 °F 47% 30.34 in 25.0 mi South 10.4 mph - N/A   Partly Cloudy
10:55 PM 28.4 °F 18.0 °F 6.8 °F 40% 30.33 in 25.0 mi South 12.7 mph - N/A   Clear
11:55 PM 30.2 °F 20.2 °F 6.8 °F 37% 30.30 in 25.0 mi South 12.7 mph - N/A   Clear